Location: Newark
(25.0000°N, 73.5000°E)
Time: 08:52:20
(UTC+00:00)

X-37B - Visible Passes

Search period start: 18 September 2020 00:00
Search period end: 28 September 2020 00:00
Orbit: 386 x 387 km, 45.0° (Epoch: 15 September)

Date Brightness Start Highest point End Pass type
(mag) Time Alt. Az. Time Alt. Az. Time Alt. Az.
23 Sep 3.3 00:21:33 10° N 00:23:43 17° NNE 00:25:53 10° ENE visible
25 Sep 2.2 00:00:22 10° NNW 00:03:18 34° NE 00:06:13 10° ESE visible
25 Sep 3.3 23:04:45 17° NE 23:04:45 17° NE 23:06:46 10° ENE visible
26 Sep 0.5 23:42:02 49° NW 23:42:46 86° NE 23:45:56 10° SE visible
